When you browse on this site, cookies collect data to enhance your experience and personalize the content and advertising you see.
Visit our Privacy Policy to learn more. By continuing to use the site, you agree to this use of cookies and data.
  • In Hungary
  • List of Countries
  • For 7 days
  • Water Temperature
  • Satellite Maps
  • Weather Map
  • News
  • Weather Widgets
  • user-avatar
    Login

    Hourly Weather Larino

    Today, 17 November, Saturday

    Time Temperature Precipitation Wind Pressure Humidity
    00:00 -19°C° 0 mm 3 mps 772 mmHg 86%
    01:00 -19°C° 0 mm 3 mps 772 mmHg 87%
    02:00 -19°C° 0 mm 3 mps 771 mmHg 87%
    03:00 -19°C° 0 mm 3 mps 770 mmHg 87%
    04:00 -19°C° 0 mm 3 mps 770 mmHg 88%
    05:00 -20°C° 0 mm 2 mps 769 mmHg 92%
    06:00 -20°C° 0 mm 2 mps 768 mmHg 92%
    07:00 -20°C° 0 mm 2 mps 768 mmHg 92%
    08:00 -22°C° 0 mm 3 mps 767 mmHg 92%
    09:00 -19°C° 0 mm 2 mps 767 mmHg 91%
    10:00 -18°C° 0 mm 2 mps 766 mmHg 90%
    11:00 -18°C° 0 mm 3 mps 766 mmHg 88%
    12:00 -17°C° 0 mm 2 mps 766 mmHg 89%
    13:00 -17°C° 0 mm 2 mps 765 mmHg 90%
    14:00 -16°C° 0 mm 2 mps 765 mmHg 90%
    15:00 -17°C° 0 mm 2 mps 765 mmHg 92%
    16:00 -17°C° 0 mm 2 mps 765 mmHg 93%
    17:00 -17°C° 0 mm 2 mps 764 mmHg 94%
    18:00 -17°C° 0 mm 2 mps 764 mmHg 95%
    19:00 -17°C° 0 mm 2 mps 764 mmHg 95%
    20:00 -15°C° 0 mm 1 mps 764 mmHg 95%
    21:00 -15°C° 0 mm 1 mps 764 mmHg 95%
    22:00 -15°C° 0 mm 1 mps 764 mmHg 96%
    23:00 -15°C° 0 mm 1 mps 764 mmHg 96%

    Tomorrow, 18 November, Sunday

    Time Temperature Precipitation Wind Pressure Humidity
    00:00 -15°C° 0 mm 1 mps 764 mmHg 96%
    01:00 -15°C° 0 mm 1 mps 764 mmHg 96%
    02:00 -15°C° 0 mm 1 mps 764 mmHg 96%
    03:00 -15°C° 0 mm 1 mps 765 mmHg 96%
    04:00 -15°C° 0 mm 1 mps 765 mmHg 96%
    05:00 -15°C° 0 mm 1 mps 765 mmHg 97%
    06:00 -15°C° 0 mm 1 mps 765 mmHg 97%
    07:00 -15°C° 0 mm 1 mps 766 mmHg 97%
    08:00 -15°C° 0 mm 1 mps 766 mmHg 97%
    09:00 -15°C° 0 mm 1 mps 766 mmHg 95%
    10:00 -14°C° 0 mm 1 mps 766 mmHg 93%
    11:00 -13°C° 0 mm 1 mps 766 mmHg 91%
    12:00 -13°C° 0 mm 1 mps 766 mmHg 92%
    13:00 -12°C° 0 mm 1 mps 767 mmHg 92%
    14:00 -12°C° 0 mm 1 mps 767 mmHg 92%
    15:00 -12°C° 0 mm 1 mps 767 mmHg 93%
    16:00 -13°C° 0 mm 1 mps 767 mmHg 94%
    17:00 -13°C° 0 mm 1 mps 767 mmHg 96%
    18:00 -12°C° 0 mm 1 mps 767 mmHg 95%
    19:00 -12°C° 0 mm 1 mps 767 mmHg 95%
    20:00 -12°C° 0 mm 1 mps 767 mmHg 95%
    21:00 -14°C° 0 mm 2 mps 767 mmHg 95%
    22:00 -13°C° 0 mm 2 mps 767 mmHg 95%
    23:00 -13°C° 0 mm 2 mps 767 mmHg 95%

    Day after tomorrow, 19 November, Monday

    Time Temperature Precipitation Wind Pressure Humidity
    00:00 -13°C° 0 mm 2 mps 766 mmHg 94%
    01:00 -13°C° 0 mm 2 mps 766 mmHg 94%
    02:00 -13°C° 0 mm 2 mps 766 mmHg 94%
    03:00 -14°C° 0 mm 2 mps 766 mmHg 94%
    04:00 -14°C° 0 mm 2 mps 766 mmHg 94%
    05:00 -14°C° 0 mm 2 mps 765 mmHg 94%
    06:00 -14°C° 0.1 mm 2 mps 765 mmHg 94%
    07:00 -14°C° 0.1 mm 2 mps 765 mmHg 95%
    08:00 -14°C° 0.1 mm 2 mps 765 mmHg 95%
    09:00 -14°C° 0.1 mm 2 mps 764 mmHg 94%
    10:00 -14°C° 0.1 mm 2 mps 764 mmHg 93%
    11:00 -14°C° 0.1 mm 2 mps 764 mmHg 92%
    12:00 -13°C° 0.2 mm 2 mps 763 mmHg 92%
    13:00 -13°C° 0.2 mm 2 mps 763 mmHg 93%
    14:00 -13°C° 0.2 mm 2 mps 763 mmHg 93%
    15:00 -13°C° 0.2 mm 2 mps 762 mmHg 93%
    16:00 -13°C° 0.2 mm 2 mps 762 mmHg 94%
    17:00 -13°C° 0.2 mm 2 mps 762 mmHg 94%
    18:00 -13°C° 0.1 mm 2 mps 761 mmHg 95%
    19:00 -13°C° 0.1 mm 2 mps 761 mmHg 95%
    20:00 -11°C° 0.1 mm 1 mps 760 mmHg 95%
    21:00 -11°C° 0 mm 1 mps 760 mmHg 96%
    22:00 -11°C° 0 mm 1 mps 760 mmHg 96%
    23:00 -11°C° 0 mm 1 mps 759 mmHg 97%

    20 November, Tuesday

    Time Temperature Precipitation Wind Pressure Humidity
    00:00 -12°C° 0 mm 1 mps 759 mmHg 97%
    01:00 -12°C° 0 mm 1 mps 759 mmHg 97%
    02:00 -12°C° 0 mm 0 mps 758 mmHg 97%
    03:00 -12°C° 0 mm 0 mps 758 mmHg 97%
    04:00 -12°C° 0 mm 0 mps 758 mmHg 97%
    05:00 -12°C° 0 mm 0 mps 758 mmHg 97%
    06:00 -12°C° 0 mm 0 mps 757 mmHg 97%
    07:00 -12°C° 0 mm 1 mps 757 mmHg 97%
    08:00 -12°C° 0 mm 1 mps 757 mmHg 97%
    09:00 -11°C° 0 mm 1 mps 757 mmHg 95%
    10:00 -11°C° 0 mm 1 mps 757 mmHg 94%
    11:00 -12°C° 0 mm 2 mps 756 mmHg 93%
    12:00 -12°C° 0 mm 2 mps 756 mmHg 92%
    13:00 -12°C° 0 mm 2 mps 756 mmHg 91%
    14:00 -12°C° 0 mm 3 mps 755 mmHg 90%
    15:00 -12°C° 0 mm 3 mps 755 mmHg 90%
    16:00 -13°C° 0 mm 3 mps 755 mmHg 90%
    17:00 -14°C° 0 mm 4 mps 754 mmHg 90%
    18:00 -12°C° 0 mm 4 mps 754 mmHg 90%
    19:00 -12°C° 0 mm 4 mps 753 mmHg 90%
    20:00 -12°C° 0 mm 4 mps 753 mmHg 89%
    21:00 -12°C° 0 mm 4 mps 753 mmHg 89%
    22:00 -12°C° 0 mm 4 mps 752 mmHg 89%
    23:00 -11°C° 0 mm 4 mps 752 mmHg 89%

    21 November, Wednesday

    Time Temperature Precipitation Wind Pressure Humidity
    00:00 -11°C° 0.1 mm 4 mps 751 mmHg 89%
    01:00 -11°C° 0.1 mm 4 mps 751 mmHg 89%
    02:00 -12°C° 0.1 mm 5 mps 750 mmHg 89%
    03:00 -11°C° 0.1 mm 5 mps 750 mmHg 89%
    04:00 -11°C° 0.1 mm 5 mps 749 mmHg 89%
    05:00 -11°C° 0.1 mm 5 mps 749 mmHg 89%
    06:00 -10°C° 0.1 mm 5 mps 749 mmHg 89%
    07:00 -10°C° 0.1 mm 5 mps 748 mmHg 89%
    08:00 -10°C° 0.1 mm 5 mps 748 mmHg 89%
    09:00 -10°C° 0.2 mm 5 mps 748 mmHg 89%
    10:00 -10°C° 0.2 mm 5 mps 748 mmHg 89%
    11:00 -8°C° 0.2 mm 5 mps 747 mmHg 88%
    12:00 -8°C° 0.2 mm 5 mps 747 mmHg 88%
    13:00 -8°C° 0.2 mm 5 mps 747 mmHg 88%
    14:00 -8°C° 0.2 mm 5 mps 747 mmHg 88%
    15:00 -8°C° 0.2 mm 5 mps 746 mmHg 88%
    16:00 -8°C° 0.2 mm 5 mps 746 mmHg 89%
    17:00 -8°C° 0.2 mm 5 mps 746 mmHg 89%
    18:00 -8°C° 0.3 mm 5 mps 746 mmHg 89%
    19:00 -8°C° 0.3 mm 5 mps 745 mmHg 90%
    20:00 -8°C° 0.3 mm 4 mps 745 mmHg 90%
    21:00 -8°C° 0.2 mm 4 mps 745 mmHg 90%
    22:00 -7°C° 0.2 mm 4 mps 745 mmHg 90%
    23:00 -7°C° 0.2 mm 4 mps 745 mmHg 91%

    22 November, Thursday

    Time Temperature Precipitation Wind Pressure Humidity
    00:00 -7°C° 0.2 mm 4 mps 745 mmHg 91%
    01:00 -7°C° 0.2 mm 4 mps 745 mmHg 92%
    02:00 -5°C° 0.2 mm 3 mps 745 mmHg 92%
    03:00 -6°C° 0.3 mm 3 mps 745 mmHg 93%
    04:00 -6°C° 0.3 mm 3 mps 745 mmHg 93%
    05:00 -6°C° 0.3 mm 3 mps 745 mmHg 94%
    06:00 -6°C° 0.3 mm 3 mps 745 mmHg 94%
    07:00 -6°C° 0.3 mm 2 mps 745 mmHg 95%
    08:00 -6°C° 0.3 mm 2 mps 745 mmHg 95%
    09:00 -6°C° 0.3 mm 2 mps 745 mmHg 95%
    10:00 -7°C° 0.3 mm 2 mps 745 mmHg 94%
    11:00 -8°C° 0.3 mm 3 mps 745 mmHg 94%
    12:00 -8°C° 0.3 mm 3 mps 745 mmHg 94%
    13:00 -9°C° 0.3 mm 3 mps 745 mmHg 94%
    14:00 -9°C° 0.3 mm 3 mps 746 mmHg 94%
    15:00 -9°C° 0.2 mm 2 mps 746 mmHg 94%
    16:00 -10°C° 0.2 mm 2 mps 746 mmHg 94%
    17:00 -12°C° 0.2 mm 2 mps 746 mmHg 94%
    18:00 -12°C° 0.1 mm 2 mps 747 mmHg 94%
    19:00 -13°C° 0.1 mm 2 mps 747 mmHg 94%
    20:00 -14°C° 0.1 mm 2 mps 747 mmHg 94%
    21:00 -14°C° 0.1 mm 2 mps 748 mmHg 94%
    22:00 -14°C° 0.1 mm 2 mps 748 mmHg 94%
    23:00 -15°C° 0.1 mm 2 mps 749 mmHg 94%
    Show more